This demonstration page uses our WeatherBlox Daily Observations layout. Learn more.

Left ArrowRight Arrow

44.89941, -97.11507

Hourly Observations for May 17, 2019

Temp ( °F °C ) Dew Point ( °F °C ) Humidity (%) Winds ( mph kmh ) Pressure ( in mb ) Visibility ( mi km ) Precip ( " mm )
12:53 am 00:53 Clear 49 9.4 33 0.6 55 55 NNE 17 28 29.85 1011 10 16 0.00 0.00
1:53 am 01:53 Clear 48 8.9 32 0 54 54 NE 18 30 29.83 1010 10 16 0.00 0.00
2:53 am 02:53 Clear 47 8.3 32 0 56 56 NE 15 24 29.85 1011 10 16 0.00 0.00
3:53 am 03:53 Clear 47 8.3 33 0.6 59 59 ENE 9 15 29.90 1012 10 16 0.00 0.00
4:53 am 04:53 Cloudy 47 8.3 35 1.7 63 63 ESE 5 7 29.93 1014 10 16 0.00 0.00
5:53 am 05:53 Cloudy 46 7.8 37 2.8 71 71 NE 8 13 29.86 1011 10 16 0.00 0.03
6:53 am 06:53 Partly Cloudy 48 8.9 34 1.1 58 58 NE 17 28 29.83 1010 10 16 0.00 0.00
7:53 am 07:53 Cloudy 47 8.3 33 0.6 59 59 E 15 24 29.86 1011 10 16 0.00 0.00
8:53 am 08:53 Mostly Cloudy 49 9.4 34 1.1 56 56 ENE 13 20 29.87 1012 10 16 0.00 0.00
9:53 am 09:53 Cloudy 51 10.6 36 2.2 56 56 ENE 12 19 29.86 1011 10 16 0.00 0.00
10:53 am 10:53 Sunny 56 13.3 38 3.3 51 51 E 17 28 29.82 1010 10 16 0.00 0.00
11:53 am 11:53 Sunny 58 14.4 38 3.3 48 48 E 17 28 29.83 1010 10 16 0.00 0.00
12:53 pm 12:53 Sunny 62 16.7 38 3.3 41 41 E 15 24 29.82 1010 10 16 0.00 0.00
1:53 pm 13:53 Cloudy 64 17.8 38 3.3 38 38 E 17 28 29.79 1009 10 16 0.00 0.00
2:53 pm 14:53 Mostly Cloudy 65 18.3 39 3.9 39 39 E 20 31 29.78 1008 10 16 0.00 0.00
3:53 pm 15:53 Mostly Cloudy 63 17.2 38 3.3 40 40 E 15 24 29.77 1008 10 16 0.00 0.00
4:53 pm 16:53 Cloudy with Light Rain 63 17.2 42 5.6 47 47 ENE 24 39 29.72 1007 10 16 0.00 0.03
5:53 pm 17:53 Partly Cloudy 64 17.8 40 4.4 41 41 ENE 26 43 29.70 1006 10 16 0.00 0.03
6:53 pm 18:53 Cloudy 62 16.7 39 3.9 43 43 E 18 30 29.71 1006 10 16 0.00 0.00
7:53 pm 19:53 Mostly Cloudy 61 16.1 41 5 48 48 ENE 29 46 29.64 1004 10 16 0.00 0.00
8:53 pm 20:53 Cloudy with Light Rain 60 15.6 42 5.6 52 52 E 20 31 29.63 1003 10 16 0.00 0.03
9:07 pm 21:07 Cloudy with Nearby Thunderstorms 59 15 44 6.7 58 58 E 17 28 29.65 1004 10 16 0.00 0.03
9:22 pm 21:22 Cloudy with Thunderstorms 57 13.9 46 7.8 67 67 E 16 26 29.69 1006 8 13 0.02 0.51
9:39 pm 21:39 Cloudy with Rain 54 12.2 47 8.3 77 77 E 21 33 29.68 1005 4 6 0.09 2.29
9:53 pm 21:53 Cloudy with Rain 54 12.2 47 8.3 77 77 E 23 37 29.67 1005 6 10 0.13 3.30
10:53 pm 22:53 Cloudy with Nearby Thunderstorms 53 11.7 48 8.9 83 83 E 22 35 29.64 1004 7 11 0.05 1.27
11:04 pm 23:04 Cloudy with Thunderstorms 52 11.1 49 9.4 89 89 E 21 33 29.64 1004 5 8 0.04 1.02
11:18 pm 23:18 Cloudy with Strong Thunderstorms 52 11.1 49 9.4 89 89 E 14 22 29.70 1006 2 3 0.31 7.87
11:23 pm 23:23 Cloudy with Strong Thunderstorms 51 10.6 49 9.4 92 92 E 21 33 29.70 1006 1 2 0.48 12.19
11:30 pm 23:30 Cloudy with Strong Thunderstorms 51 10.6 49 9.4 92 92 ENE 23 37 29.68 1005 2 2 0.55 13.97
11:35 pm 23:35 Cloudy with Strong Thunderstorms 51 10.6 49 9.4 92 92 E 22 35 29.69 1005 3 4 0.58 14.73
11:41 pm 23:41 Cloudy with Strong Thunderstorms 51 10.6 49 9.4 92 92 ENE 25 41 29.69 1005 3 5 0.62 15.75
11:53 pm 23:53 Cloudy with Nearby Thunderstorms 51 10.6 49 9.4 92 92 ENE 25 41 29.65 1004 7 11 0.65 16.51
11:55 pm 23:55 Cloudy with Nearby Thunderstorms 51 10.6 49 9.4 92 92 ENE 28 44 29.66 1004 7 11 0.00 0.03

Powered by AerisWeather